| time (UTC) | temp F | wind direction | speed knots | gust knots | rain 1hr in | rain 24hr in | rain mn in | humidity % | barometer mb |
| 20260504004501 | 57 | 233 | 1.7 | 4.3 | 0.00 | 0.00 | 0.00 | 36 | 1009.8 |
| 20260504004001 | 57 | 237 | 1.7 | 4.3 | 0.00 | 0.00 | 0.00 | 36 | 1009.8 |
| 20260504003504 | 57 | 236 | 0.9 | 3.5 | 0.00 | 0.00 | 0.00 | 35 | 1009.7 |
| 20260504003005 | 58 | 230 | 0.9 | 3.5 | 0.00 | 0.00 | 0.00 | 35 | 1009.6 |
| 20260504002502 | 58 | 236 | 1.7 | 3.5 | 0.00 | 0.00 | 0.00 | 34 | 1009.5 |
| 20260504002002 | 58 | 213 | 1.7 | 3.5 | 0.00 | 0.00 | 0.00 | 34 | 1009.4 |
| 20260504001502 | 58 | 241 | 1.7 | 4.3 | 0.00 | 0.00 | 0.00 | 34 | 1009.4 |
| 20260504001003 | 59 | 237 | 1.7 | 5.2 | 0.00 | 0.00 | 0.00 | 33 | 1009.2 |
| 20260504000502 | 59 | 248 | 2.6 | 5.2 | 0.00 | 0.00 | 0.00 | 33 | 1009.0 |
| 20260504000002 | 59 | 227 | 2.6 | 7.8 | 0.00 | 0.00 | 0.00 | 32 | 1009.0 |
| 20260503235502 | 59 | 241 | 1.7 | 7.8 | 0.00 | 0.00 | 0.00 | 32 | 1009.0 |
| 20260503235002 | 59 | 221 | 1.7 | 5.2 | 0.00 | 0.00 | 0.00 | 32 | 1009.0 |
| 20260503234502 | 60 | 289 | 2.6 | 7.8 | 0.00 | 0.00 | 0.00 | 32 | 1009.0 |
| 20260503234003 | 60 | 266 | 2.6 | 8.7 | 0.00 | 0.00 | 0.00 | 31 | 1009.1 |
| 20260503233818 | 60 | 252 | 3.5 | 7.8 | 0.00 | 0.00 | 0.00 | 30 | 1008.9 |
| 20260503233528 | 60 | 282 | 3.5 | 8.7 | 0.00 | 0.00 | 0.00 | 31 | 1009.0 |
| 20260503232502 | 60 | 247 | 3.5 | 11.3 | 0.00 | 0.00 | 0.00 | 30 | 1008.9 |
| 20260503232002 | 60 | 248 | 3.5 | 11.3 | 0.00 | 0.00 | 0.00 | 31 | 1008.9 |
| 20260503231503 | 61 | 273 | 3.5 | 8.7 | 0.00 | 0.00 | 0.00 | 30 | 1008.8 |
| 20260503231003 | 61 | 271 | 4.3 | 10.4 | 0.00 | 0.00 | 0.00 | 29 | 1008.8 |
| 20260503230501 | 61 | 264 | 3.5 | 10.4 | 0.00 | 0.00 | 0.00 | 29 | 1008.7 |
| 20260503230002 | 61 | 205 | 3.5 | 12.2 | 0.00 | 0.00 | 0.00 | 29 | 1008.6 |
| 20260503225503 | 61 | 310 | 3.5 | 12.2 | 0.00 | 0.00 | 0.00 | 30 | 1008.6 |
| 20260503225003 | 61 | 246 | 4.3 | 11.3 | 0.00 | 0.00 | 0.00 | 30 | 1008.6 |
| 20260503224502 | 61 | 198 | 4.3 | 11.3 | 0.00 | 0.00 | 0.00 | 29 | 1008.6 |
| 20260503224001 | 61 | 277 | 3.5 | 9.6 | 0.00 | 0.00 | 0.00 | 29 | 1008.6 |
| 20260503223503 | 62 | 227 | 3.5 | 9.6 | 0.00 | 0.00 | 0.00 | 30 | 1008.5 |
| 20260503223002 | 62 | 302 | 4.3 | 9.6 | 0.00 | 0.00 | 0.00 | 30 | 1008.4 |
| 20260503222502 | 62 | 306 | 4.3 | 11.3 | 0.00 | 0.00 | 0.00 | 30 | 1008.4 |
| 20260503222003 | 62 | 234 | 4.3 | 12.2 | 0.00 | 0.00 | 0.00 | 29 | 1008.5 |
| 20260503221503 | 62 | 277 | 4.3 | 13.9 | 0.00 | 0.00 | 0.00 | 29 | 1008.5 |
| 20260503221001 | 62 | 275 | 4.3 | 13.9 | 0.00 | 0.00 | 0.00 | 30 | 1008.5 |
| 20260503220501 | 62 | 287 | 5.2 | 13.0 | 0.00 | 0.00 | 0.00 | 31 | 1008.5 |
| 20260503220001 | 62 | 311 | 5.2 | 11.3 | 0.00 | 0.00 | 0.00 | 30 | 1008.4 |
| 20260503215502 | 62 | 261 | 5.2 | 12.2 | 0.00 | 0.00 | 0.00 | 30 | 1008.6 |
| 20260503215003 | 62 | 240 | 5.2 | 12.2 | 0.00 | 0.00 | 0.00 | 31 | 1008.7 |
| 20260503214503 | 62 | 319 | 5.2 | 13.9 | 0.00 | 0.00 | 0.00 | 32 | 1008.5 |
| 20260503214003 | 62 | 237 | 6.1 | 13.9 | 0.00 | 0.00 | 0.00 | 33 | 1008.5 |
| 20260503213743 | 62 | 284 | 6.1 | 14.8 | 0.00 | 0.00 | 0.00 | 31 | 1008.5 |
| 20260503213001 | 62 | 329 | 6.1 | 14.8 | 0.00 | 0.00 | 0.00 | 31 | 1008.5 |
| 20260503212501 | 62 | 319 | 7.0 | 16.5 | 0.00 | 0.00 | 0.00 | 30 | 1008.5 |
| 20260503212001 | 62 | 276 | 7.0 | 16.5 | 0.00 | 0.00 | 0.00 | 29 | 1008.5 |
| 20260503211502 | 62 | 279 | 6.1 | 15.6 | 0.00 | 0.00 | 0.00 | 31 | 1008.5 |
| 20260503211245 | 62 | 269 | 7.0 | 15.6 | 0.00 | 0.00 | 0.00 | 30 | 1008.5 |
| 20260503210500 | 61 | 13 | 7.0 | 17.4 | 0.00 | 0.00 | 0.00 | 29 | 1008.4 |
| 20260503210001 | 61 | 299 | 5.2 | 17.4 | 0.00 | 0.00 | 0.00 | 30 | 1008.4 |
| 20260503205500 | 62 | 265 | 5.2 | 15.6 | 0.00 | 0.00 | 0.00 | 31 | 1008.3 |
| 20260503205001 | 61 | 327 | 5.2 | 15.6 | 0.00 | 0.00 | 0.00 | 29 | 1008.3 |
| 20260503204502 | 61 | 329 | 6.1 | 13.9 | 0.00 | 0.00 | 0.00 | 31 | 1008.2 |
| 20260503204002 | 61 | 320 | 7.0 | 13.0 | 0.00 | 0.00 | 0.00 | 32 | 1008.2 |
| 20260503203750 | 61 | 325 | 6.1 | 16.5 | 0.00 | 0.00 | 0.00 | 31 | 1008.1 |
| 20260503203001 | 61 | 312 | 6.1 | 16.5 | 0.00 | 0.00 | 0.00 | 30 | 1008.2 |
| 20260503202746 | 61 | 306 | 7.0 | 16.5 | 0.00 | 0.00 | 0.00 | 30 | 1008.5 |
| 20260503202003 | 61 | 302 | 6.1 | 13.9 | 0.00 | 0.00 | 0.00 | 32 | 1008.5 |
| 20260503201502 | 61 | 315 | 7.0 | 16.5 | 0.00 | 0.00 | 0.00 | 32 | 1008.6 |
| 20260503201003 | 61 | 298 | 7.0 | 16.5 | 0.00 | 0.00 | 0.00 | 30 | 1008.6 |
| 20260503200502 | 61 | 277 | 6.1 | 14.8 | 0.00 | 0.00 | 0.00 | 33 | 1008.6 |
| 20260503200002 | 61 | 273 | 5.2 | 13.0 | 0.00 | 0.00 | 0.00 | 32 | 1008.6 |
| 20260503195503 | 61 | 277 | 5.2 | 13.0 | 0.00 | 0.00 | 0.00 | 35 | 1008.6 |
| 20260503195004 | 60 | 284 | 5.2 | 11.3 | 0.00 | 0.00 | 0.00 | 32 | 1008.6 |
| 20260503194502 | 60 | 325 | 6.1 | 16.5 | 0.00 | 0.00 | 0.00 | 34 | 1008.6 |
| 20260503194002 | 60 | 24 | 7.0 | 16.5 | 0.00 | 0.00 | 0.00 | 34 | 1008.7 |
| 20260503193503 | 60 | 336 | 6.1 | 15.6 | 0.00 | 0.00 | 0.00 | 32 | 1008.8 |
| 20260503193003 | 60 | 283 | 6.1 | 15.6 | 0.00 | 0.00 | 0.00 | 32 | 1008.8 |
| 20260503192500 | 60 | 263 | 6.1 | 15.6 | 0.00 | 0.00 | 0.00 | 34 | 1008.8 |
| 20260503191949 | 59 | 274 | 5.2 | 13.0 | 0.00 | 0.00 | 0.00 | 33 | 1009.0 |
| 20260503191439 | 59 | 321 | 4.3 | 13.0 | 0.00 | 0.00 | 0.00 | 33 | 1009.0 |
| 20260503190938 | 59 | 287 | 4.3 | 12.2 | 0.00 | 0.00 | 0.00 | 34 | 1009.0 |
| 20260503190438 | 59 | 275 | 7.0 | 19.1 | 0.00 | 0.00 | 0.00 | 33 | 1009.0 |
| 20260503185938 | 59 | 301 | 7.0 | 19.1 | 0.00 | 0.00 | 0.00 | 33 | 1009.0 |
| 20260503185437 | 59 | 306 | 5.2 | 17.4 | 0.00 | 0.00 | 0.00 | 34 | 1009.1 |
| 20260503184934 | 59 | 263 | 5.2 | 11.3 | 0.00 | 0.00 | 0.00 | 34 | 1009.3 |
| 20260503184432 | 59 | 325 | 6.1 | 16.5 | 0.00 | 0.00 | 0.00 | 35 | 1009.4 |
| 20260503183932 | 59 | 305 | 5.2 | 16.5 | 0.00 | 0.00 | 0.00 | 35 | 1009.4 |
| 20260503183433 | 58 | 300 | 6.1 | 16.5 | 0.00 | 0.00 | 0.00 | 35 | 1009.4 |
| 20260503182932 | 58 | 249 | 7.8 | 16.5 | 0.00 | 0.00 | 0.00 | 35 | 1009.5 |
| 20260503182430 | 58 | 315 | 7.8 | 18.2 | 0.00 | 0.00 | 0.00 | 36 | 1009.6 |
| 20260503181932 | 58 | 9 | 6.1 | 18.2 | 0.00 | 0.00 | 0.00 | 35 | 1009.5 |
| 20260503181429 | 58 | 304 | 6.1 | 14.8 | 0.00 | 0.00 | 0.00 | 38 | 1009.5 |
| 20260503180923 | 57 | 307 | 6.1 | 13.9 | 0.00 | 0.00 | 0.00 | 37 | 1009.6 |
| 20260503180413 | 57 | 299 | 6.1 | 13.9 | 0.00 | 0.00 | 0.00 | 37 | 1009.5 |
| 20260503175911 | 57 | 280 | 6.1 | 12.2 | 0.00 | 0.00 | 0.00 | 37 | 1009.6 |
| 20260503175402 | 57 | 253 | 6.1 | 15.6 | 0.00 | 0.00 | 0.00 | 38 | 1009.6 |
| 20260503174902 | 57 | 295 | 7.8 | 17.4 | 0.00 | 0.00 | 0.00 | 39 | 1009.6 |
| 20260503174404 | 57 | 316 | 8.7 | 17.4 | 0.00 | 0.00 | 0.00 | 38 | 1009.5 |
| 20260503173903 | 57 | 334 | 9.6 | 18.2 | 0.00 | 0.00 | 0.00 | 38 | 1009.6 |
| 20260503173402 | 56 | 9 | 7.8 | 18.2 | 0.00 | 0.00 | 0.00 | 39 | 1009.6 |
| 20260503172901 | 56 | 315 | 6.1 | 13.0 | 0.00 | 0.00 | 0.00 | 40 | 1009.6 |
| 20260503172402 | 56 | 287 | 7.0 | 16.5 | 0.00 | 0.00 | 0.00 | 38 | 1009.5 |
| 20260503171901 | 56 | 263 | 6.1 | 16.5 | 0.00 | 0.00 | 0.00 | 37 | 1009.6 |
| 20260503171402 | 56 | 290 | 6.1 | 13.0 | 0.00 | 0.00 | 0.00 | 40 | 1009.7 |
| 20260503170902 | 56 | 281 | 7.0 | 13.0 | 0.00 | 0.00 | 0.00 | 40 | 1009.8 |
| 20260503170402 | 56 | 323 | 7.8 | 13.9 | 0.00 | 0.00 | 0.00 | 39 | 1009.9 |
| 20260503150902 | 53 | 278 | 5.2 | 13.9 | 0.00 | 0.00 | 0.00 | 42 | 1010.0 |
| 20260503150402 | 54 | 298 | 6.1 | 14.8 | 0.00 | 0.00 | 0.00 | 40 | 1010.2 |
| 20260503150148 | 55 | 311 | 7.8 | 20.9 | 0.00 | 0.00 | 0.00 | 40 | 1010.1 |
| 20260503131402 | 49 | 290 | 7.0 | 13.9 | 0.00 | 0.00 | 0.00 | 53 | 1010.4 |
| 20260503130902 | 49 | 330 | 6.1 | 13.9 | 0.00 | 0.00 | 0.00 | 53 | 1010.4 |
| 20260503130403 | 49 | 10 | 5.2 | 13.9 | 0.00 | 0.00 | 0.00 | 53 | 1010.4 |
| 20260503130143 | 49 | 293 | 6.1 | 11.3 | 0.00 | 0.00 | 0.00 | 53 | 1010.2 |
| 20260503110401 | 48 | 348 | 5.2 | 13.0 | 0.00 | 0.00 | 0.00 | 54 | 1009.4 |
| 20260503090402 | 49 | 42 | 4.3 | 12.2 | 0.00 | 0.00 | 0.00 | 52 | 1008.0 |
| 20260503081342 | 50 | 344 | 3.5 | 9.6 | 0.00 | 0.00 | 0.00 | 52 | 1007.9 |
| 20260503080829 | 50 | 331 | 2.6 | 9.6 | 0.00 | 0.00 | 0.00 | 50 | 1007.9 |
| 20260503080330 | 50 | 13 | 3.5 | 13.9 | 0.00 | 0.00 | 0.00 | 51 | 1007.9 |
| 20260503072829 | 51 | 322 | 3.5 | 10.4 | 0.00 | 0.00 | 0.00 | 48 | 1008.0 |
| 20260503072329 | 51 | 315 | 3.5 | 11.3 | 0.00 | 0.00 | 0.00 | 48 | 1008.0 |
| 20260503072116 | 51 | 350 | 4.3 | 12.2 | 0.00 | 0.00 | 0.00 | 48 | 1007.9 |
| 20260503071328 | 51 | 342 | 3.5 | 12.2 | 0.00 | 0.00 | 0.00 | 48 | 1007.9 |
| 20260503070828 | 52 | 355 | 3.5 | 11.3 | 0.00 | 0.00 | 0.00 | 48 | 1007.9 |
| 20260503070329 | 52 | 331 | 4.3 | 10.4 | 0.00 | 0.00 | 0.00 | 48 | 1007.8 |
| 20260503060330 | 53 | 57 | 4.3 | 10.4 | 0.00 | 0.00 | 0.00 | 46 | 1007.9 |
| 20260503060110 | 53 | 323 | 4.3 | 10.4 | 0.00 | 0.00 | 0.00 | 45 | 1008.2 |
| 20260503054329 | 53 | 11 | 4.3 | 13.9 | 0.00 | 0.00 | 0.00 | 46 | 1008.0 |
| 20260503053829 | 53 | 325 | 4.3 | 10.4 | 0.00 | 0.00 | 0.00 | 45 | 1008.0 |
| 20260503053331 | 53 | 9 | 4.3 | 13.0 | 0.00 | 0.00 | 0.00 | 46 | 1008.0 |
| 20260503052830 | 54 | 63 | 5.2 | 13.0 | 0.00 | 0.00 | 0.00 | 44 | 1008.1 |
| 20260503052611 | 54 | 27 | 4.3 | 12.2 | 0.00 | 0.00 | 0.00 | 45 | 1008.1 |
| 20260503051831 | 54 | 342 | 3.5 | 12.2 | 0.00 | 0.00 | 0.00 | 44 | 1008.1 |
| 20260503051330 | 54 | 54 | 3.5 | 9.6 | 0.00 | 0.00 | 0.00 | 45 | 1008.4 |
| 20260503050830 | 54 | 325 | 2.6 | 8.7 | 0.00 | 0.00 | 0.00 | 43 | 1008.4 |
| 20260503050330 | 54 | 34 | 1.7 | 7.8 | 0.00 | 0.00 | 0.00 | 45 | 1008.6 |
| 20260503045831 | 54 | 345 | 2.6 | 7.8 | 0.00 | 0.00 | 0.00 | 46 | 1008.5 |
| 20260503045330 | 54 | 347 | 2.6 | 8.7 | 0.00 | 0.00 | 0.00 | 45 | 1008.6 |
| 20260503044830 | 55 | 342 | 2.6 | 8.7 | 0.00 | 0.00 | 0.00 | 45 | 1008.6 |
| 20260503044330 | 55 | 40 | 2.6 | 8.7 | 0.00 | 0.00 | 0.00 | 43 | 1008.8 |
| 20260503044113 | 55 | 11 | 3.5 | 10.4 | 0.00 | 0.00 | 0.00 | 45 | 1008.7 |
| 20260503043331 | 55 | 322 | 3.5 | 10.4 | 0.00 | 0.00 | 0.00 | 44 | 1008.6 |
| 20260503042830 | 55 | 342 | 3.5 | 8.7 | 0.00 | 0.00 | 0.00 | 43 | 1008.5 |
| 20260503042330 | 55 | 333 | 3.5 | 10.4 | 0.00 | 0.00 | 0.00 | 43 | 1008.6 |
| 20260503041830 | 55 | 65 | 3.5 | 12.2 | 0.00 | 0.00 | 0.00 | 44 | 1008.4 |
| 20260503041330 | 55 | 24 | 4.3 | 12.2 | 0.00 | 0.00 | 0.00 | 43 | 1008.5 |
| 20260503040830 | 55 | 27 | 3.5 | 9.6 | 0.00 | 0.00 | 0.00 | 43 | 1008.5 |
| 20260503040331 | 55 | 0 | 3.5 | 9.6 | 0.00 | 0.00 | 0.00 | 43 | 1008.6 |
| 20260503035830 | 55 | 348 | 3.5 | 8.7 | 0.00 | 0.00 | 0.00 | 45 | 1008.6 |
| 20260503035330 | 56 | 340 | 2.6 | 8.7 | 0.00 | 0.00 | 0.00 | 44 | 1008.6 |
| 20260503035111 | 56 | 347 | 2.6 | 7.8 | 0.00 | 0.00 | 0.00 | 45 | 1008.5 |
| 20260503034331 | 56 | 13 | 3.5 | 11.3 | 0.00 | 0.00 | 0.00 | 44 | 1008.6 |
| 20260503033829 | 56 | 23 | 4.3 | 11.3 | 0.00 | 0.00 | 0.00 | 42 | 1008.7 |
| 20260503033403 | 56 | 349 | 3.5 | 8.7 | 0.00 | 0.00 | 0.00 | 45 | 1008.5 |
| 20260503033354 | 56 | 39 | 3.5 | 10.4 | 0.00 | 0.00 | 0.00 | 43 | 1008.6 |
| 20260503032330 | 56 | 52 | 2.6 | 7.8 | 0.00 | 0.00 | 0.00 | 44 | 1008.5 |
| 20260503032115 | 56 | 67 | 2.6 | 7.8 | 0.00 | 0.00 | 0.00 | 42 | 1008.5 |
| 20260503031330 | 56 | 50 | 1.7 | 4.3 | 0.00 | 0.00 | 0.00 | 45 | 1008.5 |
| 20260503030830 | 56 | 5 | 1.7 | 7.8 | 0.00 | 0.00 | 0.00 | 46 | 1008.5 |
| 20260503030330 | 56 | 51 | 2.6 | 10.4 | 0.00 | 0.00 | 0.00 | 44 | 1008.5 |
| 20260503025832 | 56 | 322 | 2.6 | 10.4 | 0.00 | 0.00 | 0.00 | 42 | 1008.5 |
| 20260503025331 | 56 | 25 | 2.6 | 10.4 | 0.00 | 0.00 | 0.00 | 43 | 1008.5 |
| 20260503024830 | 56 | 346 | 2.6 | 10.4 | 0.00 | 0.00 | 0.00 | 43 | 1008.6 |
| 20260503024616 | 56 | 336 | 2.6 | 10.4 | 0.00 | 0.00 | 0.00 | 43 | 1008.7 |
| 20260503023830 | 57 | 38 | 2.6 | 8.7 | 0.00 | 0.00 | 0.00 | 44 | 1008.7 |
| 20260503023330 | 57 | 33 | 2.6 | 7.8 | 0.00 | 0.00 | 0.00 | 44 | 1008.4 |
| 20260503022901 | 57 | 338 | 3.5 | 11.3 | 0.00 | 0.00 | 0.00 | 44 | 1008.3 |
| 20260503022850 | 57 | 30 | 2.6 | 11.3 | 0.00 | 0.00 | 0.00 | 44 | 1008.4 |
| 20260503021831 | 57 | 309 | 3.5 | 10.4 | 0.00 | 0.00 | 0.00 | 44 | 1008.5 |
| 20260503021328 | 57 | 346 | 3.5 | 10.4 | 0.00 | 0.00 | 0.00 | 43 | 1008.5 |
| 20260503021110 | 57 | 5 | 3.5 | 9.6 | 0.00 | 0.00 | 0.00 | 44 | 1008.6 |
| 20260503020329 | 57 | 324 | 3.5 | 8.7 | 0.00 | 0.00 | 0.00 | 44 | 1008.7 |
| 20260503015829 | 57 | 40 | 3.5 | 8.7 | 0.00 | 0.00 | 0.00 | 44 | 1008.7 |
| 20260503015329 | 57 | 11 | 3.5 | 11.3 | 0.00 | 0.00 | 0.00 | 43 | 1008.7 |
| 20260503014830 | 57 | 38 | 4.3 | 11.3 | 0.00 | 0.00 | 0.00 | 42 | 1008.6 |
| 20260503014324 | 57 | 350 | 4.3 | 9.6 | 0.00 | 0.00 | 0.00 | 44 | 1008.7 |
| 20260503014055 | 57 | 47 | 3.5 | 11.3 | 0.00 | 0.00 | 0.00 | 43 | 1008.7 |
| 20260503013304 | 57 | 297 | 3.5 | 12.2 | 0.00 | 0.00 | 0.00 | 43 | 1008.7 |
| 20260503012806 | 58 | 20 | 3.5 | 12.2 | 0.00 | 0.00 | 0.00 | 42 | 1008.7 |
| 20260503012306 | 58 | 17 | 4.3 | 13.9 | 0.00 | 0.00 | 0.00 | 43 | 1008.6 |
| 20260503011804 | 58 | 0 | 4.3 | 13.9 | 0.00 | 0.00 | 0.00 | 41 | 1008.6 |
| 20260503011306 | 58 | 5 | 3.5 | 13.0 | 0.00 | 0.00 | 0.00 | 43 | 1008.6 |
| 20260503010805 | 58 | 9 | 3.5 | 11.3 | 0.00 | 0.00 | 0.00 | 45 | 1008.5 |
| 20260503010305 | 58 | 47 | 3.5 | 10.4 | 0.00 | 0.00 | 0.00 | 45 | 1008.5 |
| 20260503005804 | 58 | 330 | 2.6 | 7.0 | 0.00 | 0.00 | 0.00 | 45 | 1008.4 |
| 20260503005305 | 58 | 311 | 3.5 | 8.7 | 0.00 | 0.00 | 0.00 | 45 | 1008.4 |